Location: Limoges
(45.8354°N, 1.2645°E)
Time: 09:26:39
(UTC+02:00)

ISS - Visible Passes

Search period start: 20 October 2021 00:00
Search period end: 30 October 2021 00:00
Orbit: 417 x 423 km, 51.6° (Epoch: 20 October)

Date Brightness Start Highest point End Pass type
(mag) Time Alt. Az. Time Alt. Az. Time Alt. Az.
21 Oct -1.8 07:47:05 10° SSW 07:50:06 31° SE 07:53:07 10° ENE visible
22 Oct -1.2 07:00:33 10° S 07:03:05 20° SE 07:05:38 10° E visible
23 Oct -0.8 06:14:35 10° SSE 06:16:09 13° SE 06:17:43 10° ESE visible
23 Oct -3.6 07:49:07 10° SW 07:52:29 78° SSE 07:55:52 10° ENE visible
24 Oct -3.0 07:02:56 16° SW 07:05:25 50° SE 07:08:42 10° ENE visible
25 Oct -2.3 06:18:17 32° SSE 06:18:25 32° SE 06:21:29 10° ENE visible
25 Oct -3.4 07:51:52 10° W 07:55:10 51° NNW 07:58:29 10° ENE visible
26 Oct -0.5 05:33:31 13° E 05:33:31 13° E 05:34:06 10° E visible
26 Oct -3.8 07:06:31 29° WSW 07:08:03 71° NNW 07:11:26 10° ENE visible
27 Oct -3.1 06:21:40 55° ENE 06:21:40 55° ENE 06:24:23 10° ENE visible
27 Oct -2.7 07:54:58 10° WNW 07:58:06 33° N 08:01:13 10° NE visible
28 Oct -0.5 05:36:44 14° ENE 05:36:44 14° ENE 05:37:20 10° ENE visible
28 Oct -3.0 07:09:45 28° WNW 07:10:58 39° NNW 07:14:10 10° NE visible
29 Oct -2.6 06:24:47 38° NNE 06:24:47 38° NNE 06:27:12 10° ENE visible
29 Oct -2.4 07:58:12 10° WNW 08:01:12 29° N 08:04:13 10° ENE visible
